Terminal Aerodrome Forecast
Issued by NWS Omaha/Valley, NE

Home | Current Version | Previous Version | Graphics & Text | Print | Product List | Glossary On
Versions: 1 2 3 4 5 6 7 8 9 10 11 12 13 14 15 16 17 18 19 20 21 22 23 24 25 26 27 28 29 30 31 32 33 34 35 36 37 38 39 40 41 42 43 44 45 46 47 48 49 50
000
FTUS43 KOAX 240520
TAFOFK
TAF
KOFK 240520Z 2406/2506 16020G30KT 6SM -RA SCT035 BKN090
      TEMPO 2408/2410 BKN025
     FM241000 01008KT 6SM -SHRA OVC015
     FM241200 36013KT 6SM -SHRA OVC004
     FM241500 02013G20KT 5SM -SHRA OVC008=

USA.gov is the U.S. government's official web portal to all federal, state and local government web resources and services.